Tracking 25648 objects as of 17-May-2022
HD Live streaming from Space Station
objects crossing your sky now

COSMOS 2251 DEB

Track COSMOS 2251 DEB now!
10-day predictions


NORAD ID: 34721
Int'l Code: 1993-036YP
Perigee: 765.8 km
Apogee: 1,114.0 km
Inclination: 73.9 °
Period: 103.7 minutes
Semi major axis: 7310 km
RCS: 0.0075 m2 (small)
Launch date: June 16, 1993
Source: Commonwealth of Independent States (former USSR) (CIS)
Launch site: PLESETSK MISSILE AND SPACE COMPLEX (PKMTR)

Note: This is SATELLITE DEBRIS
aabbcc
Your satellite tracking list
Your tracking list is empty




NASA's NSSDC Master Catalog

Two Line Element Set (TLE):
1 34721U 93036YP  22137.49256652  .00001721  00000-0  11532-2 0  9997
2 34721  73.9264  53.1014 0238099 250.9699 288.9607 13.88817116669842
Source of the keplerian elements: AFSPC